Regional Weather Roundup
Issued by NWS Wilmington, NC

Home | Current Version | Previous Version | Text Only | Print | Product List | Glossary On
Versions: 1 2 3 4 5 6 7 8 9 10 11 12 13 14 15 16 17 18 19 20 21 22 23 24 25 26 27 28 29 30 31 32 33 34 35 36 37 38 39 40 41 42 43 44 45 46 47 48 49
000
ASUS42 KILM 051913
RWRILM
RWRILM
REGIONAL HOURLY WEATHER ROUNDUP
NATIONAL WEATHER SERVICE WILMINGTON NC
300 PM EDT SUN JUL 05 2015

NOTE: "FAIR" INDICATES FEW OR NO CLOUDS BELOW 12,000 FEET WITH NO
SIGNIFICANT WEATHER AND/OR OBSTRUCTIONS TO VISIBILITY.

...............WFO WILMINGTON COUNTY WARNING AREA...............

......COASTAL NC AND SC COUNTIES......

CITY           SKY/WX    TMP DP  RH WIND       PRES   REMARKS
WILMINGTON     SUNNY     90  67  46 SW8       30.12S HX  93
N MYRTLE BEACH SUNNY     85  75  72 S15       30.13F HX  93
MYRTLE BEACH   MOSUNNY   88  73  62 S17       30.14S HX  96

......INLAND NC AND SC COUNTIES.......

CITY           SKY/WX    TMP DP  RH WIND       PRES   REMARKS
LUMBERTON      MOSUNNY   91  69  48 SW10      30.09F HX  96
ELIZABETHTOWN  MOSUNNY   89  69  51 SE7       30.11F HX  92
WHITEVILLE     PTSUNNY   89  70  53 S12       30.11S HX  94
FLORENCE       PTSUNNY   90  69  50 S14       30.10S HX  94
DARLINGTON     MOSUNNY   91  70  49 S7G16     30.10S HX  97

....................REST OF NORTH CAROLINA......................

.........EASTERN NC.........

CITY           SKY/WX    TMP DP  RH WIND       PRES   REMARKS
CAPE HATTERAS  SUNNY     83  75  77 SW12      30.14F HX  90
JACKSONVILLE   MOSUNNY   93  68  43 S10G16    30.11F HX  97
MOREHEAD CITY  MOSUNNY   85  76  74 SW16      30.14S HX  94
KENANSVILLE    MOSUNNY   89  66  46 SE5       30.11F HX  91
NEW BERN       MOSUNNY   91  72  53 SW12      30.12F HX  98
ELIZABETH CITY PTSUNNY   82  73  74 N8        30.11R

.........CENTRAL NC.........

CITY           SKY/WX    TMP DP  RH WIND       PRES   REMARKS
RALEIGH DURHAM PTSUNNY   82  73  74 E5        30.09F
ROCKY MOUNT    MOSUNNY   89  71  55 S9        30.09F HX  95
ROANOKE RAPIDS NOT AVBL
FAYETTEVILLE   PTSUNNY   90  69  50 S12       30.08F HX  94
HOFFMAN        RAIN      84  73  69 W17       30.13S HX  90

.........WESTERN NC.........

CITY           SKY/WX    TMP DP  RH WIND       PRES   REMARKS
CHARLOTTE      MOSUNNY   84  68  58 SW8       30.08F
GREENSBORO     PTSUNNY   85  67  54 S13G20    30.09F
HICKORY        NOT AVBL
BOONE          NOT AVBL
ASHEVILLE      NOT AVBL

.....................REST OF SOUTH CAROLINA.....................

.........EASTERN SC.........

CITY           SKY/WX    TMP DP  RH WIND       PRES   REMARKS
CHARLESTON     MOSUNNY   90  71  53 S14       30.11F HX  96
BEAUFORT MCAS  PTSUNNY   78  74  87 S3        30.13F THUNDER
HILTON HEAD    PTSUNNY   84  75  74 CALM      30.14F HX  92

.........CENTRAL SC.........

CITY           SKY/WX    TMP DP  RH WIND       PRES   REMARKS
COLUMBIA       PTSUNNY   89  67  47 SW10      30.08F HX  92
ORANGEBURG     PTSUNNY   88  67  49 SW7       30.10F HX  91
SUMTER SHAW    MOSUNNY   90  69  50 S9G21     30.08F HX  94

.........WESTERN SC.........

CITY           SKY/WX    TMP DP  RH WIND       PRES   REMARKS
GREENVILLE     NOT AVBL
ROCK HILL      PTSUNNY   87  66  49 SW12      30.08F
ANDERSON       PTSUNNY   83  67  58 S13       30.08F
CLEMSON        NOT AVBL
GREENWOOD      MOSUNNY   85  67  54 SW10      30.11F


...................COASTAL AND OFFSHORE REPORTS..................

................LOCAL PIERS AND NC RESERVE................


STATION/POSITION TIME  SKY/WX   TEMP    WIND        PRES    VSBY
                                AIR SEA DIR/SP/G
                 (UTC)          (F)     (DEG/KT/KT) (MB)    (MI)
JOHNY MRCER PIER 1800            80 80  180/ 17/ 18 1020.0F
NC RESRV MASNBRO NOT AVBL
OCEAN CREST PIER NOT AVBL
SPRINGMAID  PIER 1800            81 83  160/ 17/ 20 1020.4F


................COASTAL AND OFFSHORE BUOYS................


STATION/POSITION TIME  SKY/WX   TEMP    WIND        PRES    VSBY
                                AIR SEA DIR/SP/G
                 (UTC)          (F)     (DEG/KT/KT) (MB)    (MI)
DIMNDSHOAL 41025 1850            81 81  220/ 12/ 14 1020.6F
WVE H/P(F/S)=  3/ 5 WND WVE H/P(F/S)=  2/ 5 SWL H/P/D(F/S/D)=  2/140/ 9

CAPE LOOKOUT     1900            82     200/ 13/ 15 1020.4F
ONSLOW BAY 41036 NOT AVBL
5 WRITEBCH 41038 1808            80 79  200/ 14/ 16 1020.8R
MASONBORO  41110 1819               80                N/A
WVE H/P(F/S)=  2/ 5 WND WVE H/P(F/S)=  2/ 5

WILM HARBR 41108 1811               82                N/A
WVE H/P(F/S)=  2/ 4 WND WVE H/P(F/S)=  2/ 4

27WRITEBCH 41037 1800               80  220/ 10/ 12   N/A
FRYING PAN 41013 1850            81 80  190/ 10/ 12 1021.3F
WVE H/P(F/S)=  3/ 8 WND WVE H/P(F/S)=  2/ 5 SWL H/P/D(F/S/D)=  2/130/ 8

SUNST NRSH 41024 1808            80     190/ 12/ 16 1020.6F
CAPRS NRSH 41029 1808            82     200/ 12/ 14 1021.1F
EDISTO     41004 1850            82 83  190/ 12/ 16 1020.6F
WVE H/P(F/S)=  3/ 9 WND WVE H/P(F/S)=  2/ 4 SWL H/P/D(F/S/D)=  2/ 9



..........OFFSHORE BUOYS BEYOND 100 NM OFFSHORE...........
.....IN A TRIANGLE---HAT TO BERMUDA TO BAHAMAS TO HAT.....


STATION/POSITION TIME  SKY/WX   TEMP    WIND        PRES    VSBY
                                AIR SEA DIR/SP/G
                 (UTC)          (F)     (DEG/KT/KT) (MB)    (MI)
150E HAT   41001 NOT AVBL
W BERMUDA  41048 1850            81 82  240/  6/  8 1024.5F
WVE H/P(F/S)=  5/ 8 WND WVE H/P(F/S)=  2/ 4 SWL H/P/D(F/S/D)=  5/290/ 8

ATLANTIC S 41049 1850            83 84   80/ 12/ 14 1024.3F
WVE H/P(F/S)=  4/ 8 WND WVE H/P(F/S)=  2/ 5 SWL H/P/D(F/S/D)=  3/120/ 8

E BAHAMAS  41046 1850            83 84   90/ 10/ 12 1022.3F
WVE H/P(F/S)=  5/ 8 WND WVE H/P(F/S)=  2/ 4 SWL H/P/D(F/S/D)=  5/120/ 8

NE BAHAMAS 41047 1850            83 85  140/  8/ 10 1023.3F
WVE H/P(F/S)=  4/ 8 WND WVE H/P(F/S)=  2/ 4 SWL H/P/D(F/S/D)=  3/120/ 8

120E CANVRL41010 1820            77 84   30/ 10/ 12 1023.0F

END



USA.gov is the U.S. government's official web portal to all federal, state and local government web resources and services.